OE6CUD-6 Weather Reports


Display with metric or nautical units.
time (UTC)temp
F
wind
direction
speed
MPH
gust
MPH
rain 1hr
in
rain 24hr
in
rain mn
in
humidity
%
barometer
mb
20260504200645 62 219 0.0 2.0 0.00 0.00 0.00 67 1011.6
20260504200120 62 217 0.0 2.0 0.00 0.00 0.00 66 1011.6
20260504195609 62 130 1.0 2.0 0.00 0.00 0.00 65 1011.7
20260504195109 63 74 0.0 2.0 0.00 0.00 0.00 63 1011.6
20260504194608 64 355 0.0 2.0 0.00 0.00 0.00 63 1011.7
20260504194353 64 347 0.0 2.0 0.00 0.00 0.00 61 1011.7
20260504193604 65 347 0.0 2.0 0.00 0.00 0.00 60 1011.8
20260504193103 66 284 1.0 3.0 0.00 0.00 0.00 60 1011.8
20260504192603 67 214 1.0 3.0 0.00 0.00 0.00 57 1011.8
20260504192105 67 224 1.0 4.0 0.00 0.00 0.00 56 1011.8
20260504191847 67 223 1.0 5.0 0.00 0.00 0.00 56 1011.8
20260504191107 68 181 2.0 5.0 0.00 0.00 0.00 56 1011.7
20260504190605 68 177 2.0 4.0 0.00 0.00 0.00 55 1011.6
20260504190110 68 176 2.0 8.0 0.00 0.00 0.00 56 1011.7
20260504185605 68 204 2.0 8.0 0.00 0.00 0.00 55 1011.6
20260504185052 69 173 2.0 5.0 0.00 0.00 0.00 55 1011.5
20260504184549 69 210 2.0 6.0 0.00 0.00 0.00 54 1011.5
20260504184047 69 164 2.0 6.0 0.00 0.00 0.00 53 1011.4
20260504183559 70 147 3.0 7.0 0.00 0.00 0.00 53 1011.4
20260504183552 70 217 2.0 6.0 0.00 0.00 0.00 53 1011.5
20260504182527 71 223 3.0 11.0 0.00 0.00 0.00 52 1011.4
20260504182025 71 179 3.0 12.0 0.00 0.00 0.00 52 1011.4
20260504181523 71 178 3.0 12.0 0.00 0.00 0.00 52 1011.3
20260504181022 71 165 3.0 9.0 0.00 0.00 0.00 52 1011.4
20260504180522 72 211 4.0 9.0 0.00 0.00 0.00 52 1011.3
20260504180022 72 243 3.0 9.0 0.00 0.00 0.00 51 1011.2
20260504175521 72 195 3.0 9.0 0.00 0.00 0.00 52 1011.3
20260504175021 72 182 3.0 9.0 0.00 0.00 0.00 52 1011.4
20260504174522 72 213 4.0 8.0 0.00 0.00 0.00 51 1011.3
20260504174020 73 211 3.0 8.0 0.00 0.00 0.00 51 1011.3
20260504173517 73 216 3.0 9.0 0.00 0.00 0.00 52 1011.2
20260504173306 73 175 3.0 9.0 0.00 0.00 0.00 51 1011.2
20260504172805 73 207 3.0 7.0 0.00 0.00 0.00 50 1011.3
20260504172014 74 163 3.0 10.0 0.00 0.00 0.00 50 1011.3
20260504171511 74 159 2.0 10.0 0.00 0.00 0.00 49 1011.3
20260504171010 74 196 3.0 8.0 0.00 0.00 0.00 49 1011.3
20260504170511 74 181 2.0 9.0 0.00 0.00 0.00 49 1011.3
20260504150908 81 206 3.0 9.0 0.00 0.00 0.00 43 1012.3
20260504150409 81 156 4.0 9.0 0.00 0.00 0.00 43 1012.4
20260504140907 82 146 3.0 9.0 0.00 0.00 0.00 43 1013.0
20260504140644 83 155 4.0 12.0 0.00 0.00 0.00 42 1013.2
20260504130330 80 121 6.0 15.0 0.00 0.00 0.00 46 1014.0
20260504130108 80 111 6.0 15.0 0.00 0.00 0.00 47 1014.1
20260504120304 80 150 3.0 7.0 0.00 0.00 0.00 44 1014.8
20260504110234 76 96 4.0 9.0 0.00 0.00 0.00 50 1015.3
20260504100233 73 105 4.0 12.0 0.00 0.00 0.00 54 1015.7
20260504081703 68 232 1.0 5.0 0.00 0.00 0.00 63 1016.0
20260504081452 69 77 2.0 5.0 0.00 0.00 0.00 63 1016.1
20260504080706 69 92 3.0 5.0 0.00 0.00 0.00 63 1016.0
20260504080202 67 101 2.0 4.0 0.00 0.00 0.00 66 1015.9
20260504070133 62 170 0.0 2.0 0.00 0.00 0.00 71 1015.5
20260504050350 49 53 0.0 2.0 0.00 0.00 0.00 98 1014.4
20260504045600 48 70 0.0 2.0 0.00 0.00 0.00 98 1014.4
20260504045104 48 57 0.0 2.0 0.00 0.00 0.00 97 1014.4
20260504044602 48 31 0.0 2.0 0.00 0.00 0.00 97 1014.4
20260504044134 48 323 0.0 2.0 0.00 0.00 0.00 96 1014.3
20260504044125 48 355 0.0 2.0 0.00 0.00 0.00 97 1014.4
20260504043100 48 323 0.0 1.0 0.00 0.00 0.00 96 1014.4
20260504042551 48 323 0.0 2.0 0.00 0.00 0.00 96 1014.3
20260504042053 47 323 0.0 2.0 0.00 0.00 0.00 95 1014.3
20260504041549 48 323 0.0 2.0 0.00 0.00 0.00 95 1014.3
20260504041051 48 323 0.0 2.0 0.00 0.00 0.00 95 1014.3
20260504040547 47 323 0.0 2.0 0.00 0.00 0.00 94 1014.3
20260504040042 48 323 0.0 2.0 0.00 0.00 0.00 93 1014.3
20260504035537 48 323 0.0 2.0 0.00 0.00 0.00 93 1014.2
20260504035035 48 323 0.0 2.0 0.00 0.00 0.00 93 1014.2
20260504034531 48 323 0.0 2.0 0.00 0.00 0.00 93 1014.3
20260504034312 48 323 0.0 0.0 0.00 0.00 0.00 92 1014.3
20260504033531 48 323 0.0 0.0 0.00 0.00 0.00 92 1014.3
20260504033029 48 323 0.0 0.0 0.00 0.00 0.00 92 1014.3
20260504032529 48 323 0.0 2.0 0.00 0.00 0.00 92 1014.3
20260504032250 49 323 0.0 2.0 0.00 0.00 0.00 92 1014.3
20260504031749 49 323 0.0 2.0 0.00 0.00 0.00 92 1014.2
20260504031005 49 323 0.0 2.0 0.00 0.00 0.00 91 1014.3
20260504030502 49 323 0.0 2.0 0.00 0.00 0.00 92 1014.4
20260504030447 49 323 0.0 2.0 0.00 0.00 0.00 92 1014.4
20260504025431 49 323 0.0 2.0 0.00 0.00 0.00 92 1014.4
20260504024931 49 323 0.0 1.0 0.00 0.00 0.00 92 1014.4
20260504024427 49 323 0.0 2.0 0.00 0.00 0.00 92 1014.4
20260504023926 49 323 0.0 2.0 0.00 0.00 0.00 91 1014.4
20260504023405 49 323 0.0 2.0 0.00 0.00 0.00 91 1014.4
20260504022858 49 323 0.0 2.0 0.00 0.00 0.00 90 1014.4
20260504022352 49 323 0.0 2.0 0.00 0.00 0.00 90 1014.4
20260504021833 50 323 0.0 2.0 0.00 0.00 0.00 90 1014.4
20260504021331 50 323 0.0 2.0 0.00 0.00 0.00 90 1014.4
20260504020815 50 323 0.0 2.0 0.00 0.00 0.00 90 1014.4
20260504020530 50 323 0.0 2.0 0.00 0.00 0.00 89 1014.5
20260504015800 50 323 0.0 2.0 0.00 0.00 0.00 89 1014.5
20260504015302 50 335 0.0 2.0 0.00 0.00 0.00 89 1014.5
20260504014803 50 335 0.0 1.0 0.00 0.00 0.00 89 1014.5
20260504014302 50 336 0.0 2.0 0.00 0.00 0.00 88 1014.4
20260504013801 51 336 0.0 2.0 0.00 0.00 0.00 88 1014.5
20260504013301 51 336 0.0 2.0 0.00 0.00 0.00 88 1014.5
20260504012756 51 341 0.0 2.0 0.00 0.00 0.00 88 1014.5
20260504012256 51 342 0.0 1.0 0.00 0.00 0.00 88 1014.5
20260504011744 51 342 0.0 1.0 0.00 0.00 0.00 87 1014.5
20260504011233 51 346 0.0 2.0 0.00 0.00 0.00 87 1014.5
20260504010730 51 346 0.0 2.0 0.00 0.00 0.00 86 1014.5
20260504010459 51 347 0.0 2.0 0.00 0.00 0.00 86 1014.6
20260504005724 51 347 0.0 1.0 0.00 0.00 0.00 86 1014.6
20260504005452 51 347 0.0 2.0 0.00 0.00 0.00 85 1014.6
20260504004941 51 347 0.0 2.0 0.00 0.00 0.00 85 1014.6
20260504004203 52 347 0.0 2.0 0.00 0.00 0.00 85 1014.6
20260504003938 52 347 0.0 2.0 0.00 0.00 0.00 84 1014.6
20260504003435 52 347 0.0 2.0 0.00 0.00 0.00 84 1014.6
20260504002703 52 348 0.0 2.0 0.00 0.00 0.00 83 1014.6
20260504002202 52 347 0.0 2.0 0.00 0.00 0.00 83 1014.6
20260504001702 52 331 0.0 2.0 0.00 0.00 0.00 83 1014.7
20260504001202 53 315 0.0 2.0 0.00 0.00 0.00 83 1014.8
20260504000700 53 315 0.0 2.0 0.00 0.00 0.00 82 1014.8
20260504000201 53 315 0.0 2.0 0.00 0.00 0.00 82 1014.8
20260503235700 53 315 0.0 2.0 0.00 0.00 0.00 82 1014.7
20260503235159 53 315 0.0 2.0 0.00 0.00 0.00 82 1014.7
20260503234638 53 315 0.0 2.0 0.00 0.00 0.00 82 1014.7
20260503234130 53 315 0.0 2.0 0.00 0.00 0.00 82 1014.7
20260503233631 53 315 0.0 2.0 0.00 0.00 0.00 82 1014.8
20260503233129 54 315 0.0 1.0 0.00 0.00 0.00 82 1014.8
20260503232910 54 323 0.0 2.0 0.00 0.00 0.00 81 1014.8
20260503232106 54 323 1.0 2.0 0.00 0.00 0.00 81 1014.7
20260503231606 54 313 1.0 2.0 0.00 0.00 0.00 81 1014.8
20260503231106 54 316 0.0 2.0 0.00 0.00 0.00 81 1014.8
20260503230603 54 323 0.0 2.0 0.00 0.00 0.00 81 1014.8
20260503230106 54 327 0.0 2.0 0.00 0.00 0.00 80 1014.7
20260503225603 54 328 0.0 2.0 0.00 0.00 0.00 80 1014.8
20260503225105 55 336 1.0 2.0 0.00 0.00 0.00 80 1014.8
20260503224601 55 329 0.0 2.0 0.00 0.00 0.00 80 1014.8
20260503224343 55 330 0.0 1.0 0.00 0.00 0.00 79 1014.8
20260503223600 55 330 0.0 1.0 0.00 0.00 0.00 79 1014.8
20260503223102 55 328 0.0 1.0 0.00 0.00 0.00 79 1014.9
20260503222601 55 328 0.0 2.0 0.00 0.00 0.00 79 1015.0
20260503222104 55 327 0.0 2.0 0.00 0.00 0.00 78 1014.9
20260503221601 56 348 0.0 2.0 0.00 0.00 0.00 78 1014.9
20260503221104 56 348 0.0 2.0 0.00 0.00 0.00 77 1014.9
20260503220556 56 348 0.0 2.0 0.00 0.00 0.00 77 1014.9
20260503220046 56 321 0.0 2.0 0.00 0.00 0.00 76 1014.9
20260503215815 56 321 0.0 2.0 0.00 0.00 0.00 76 1015.1
20260503215031 56 321 0.0 2.0 0.00 0.00 0.00 75 1015.0
20260503214518 57 321 0.0 2.0 0.00 0.00 0.00 75 1015.1
20260503214012 57 321 0.0 2.0 0.00 0.00 0.00 75 1015.0
20260503213502 57 321 0.0 2.0 0.00 0.00 0.00 74 1015.0
20260503212957 57 321 0.0 2.0 0.00 0.00 0.00 74 1015.1
20260503212451 58 321 0.0 2.0 0.00 0.00 0.00 74 1015.2
20260503211939 58 323 0.0 2.0 0.00 0.00 0.00 74 1015.2
20260503211433 58 323 1.0 2.0 0.00 0.00 0.00 73 1015.1
20260503210919 58 325 1.0 2.0 0.00 0.00 0.00 73 1015.0
20260503210406 58 325 0.0 2.0 0.00 0.00 0.00 73 1015.1
20260503205903 58 325 0.0 2.0 0.00 0.00 0.00 73 1015.1
20260503205402 59 325 0.0 1.0 0.00 0.00 0.00 73 1015.0
20260503204901 59 325 0.0 2.0 0.00 0.00 0.00 73 1015.1
20260503204353 59 325 0.0 2.0 0.00 0.00 0.00 73 1015.2
20260503204131 59 325 0.0 2.0 0.00 0.00 0.00 73 1015.2
20260503203343 59 325 0.0 1.0 0.00 0.00 0.00 73 1015.3
20260503202832 59 325 0.0 1.0 0.00 0.00 0.00 73 1015.3
20260503202326 59 325 0.0 2.0 0.00 0.00 0.00 73 1015.3
20260503201821 59 325 0.0 2.0 0.00 0.00 0.00 73 1015.3
20260503201314 59 327 0.0 1.0 0.00 0.00 0.00 73 1015.3
20260503201128 60 333 0.0 2.0 0.00 0.00 0.00 72 1015.3
20260503201124 60 333 0.0 2.0 0.00 0.00 0.00 71 1015.5
20260503201120 59 335 0.0 2.0 0.00 0.00 0.00 73 1015.3